Flagstaff, AZ

6:03 AM MST on December 06, 2016 (GMT -0700)
Flagstaff Pulliam

Weather History for KFLG - July, 2013

Change the Weather History Date:

Monday, July 29, 2013

  Actual Average Record
Temperature  
Mean Temperature 64 °F 66 °F  
Max Temperature 76 °F 80 °F 92 °F (2002)
Min Temperature 51 °F 52 °F 37 °F (1913)
Degree Days  
Heating Degree Days 1 1  
Month to date heating degree days 8 34  
Since 1 July heating degree days 8 34  
Cooling Degree Days 0 2  
Month to date cooling degree days 74 58  
Year to date cooling degree days 124 75  
Growing Degree Days 13 (Base 50)    
Moisture  
Dew Point 51 °F    
Average Humidity 69    
Maximum Humidity 100    
Minimum Humidity 38    
Precipitation  
Precipitation 0.07 in 0.11 in 1.37 in (1977)
Month to date precipitation 7.56 2.37  
Year to date precipitation 12.82 10.84  
Snow  
Snow 0.00 in 0.00 in 0.00 in (2002)
Month to date snowfall 0.0 0.0  
Since 1 July snowfall 0.0 0.0  
Snow Depth 0.00 in    
Sea Level Pressure  
Sea Level Pressure 30.04 in    
Wind  
Wind Speed 5 mph (WSW)    
Max Wind Speed 18 mph    
Max Gust Speed 24 mph    
Visibility 10 miles    
Events Rain    
T = Trace of Precipitation, MM = Missing Value Source: NWS Daily Summary

Daily Weather History Graph

Daily Weather History Graph

Search for Another Location

Airport or City:

Trip Planner

Search our weather history database for the weather conditions in past years. The results will help you decide how hot, cold, wet, or windy it might be!

Date:

Astronomy

Jul. 29, 2013 Rise Set
Actual Time 5:33 AM MST 7:32 PM MST
Civil Twilight 5:05 AM MST 8:00 PM MST
Nautical Twilight 4:31 AM MST 8:34 PM MST
Astronomical Twilight 3:55 AM MST 9:10 PM MST
Moon 11:52 PM MST (7/29) 12:59 PM MST (7/29)
Length of Visible Light 14h 54m
Length of Day
13h 58m
Waning Gibbous, 50% of the Moon is Illuminated
Jul 29
Waning Gibbous
Aug 6
New
Aug 14
First Quarter
Aug 20
Full
Aug 28
Last Quarter

Hourly Weather History & Observations

Time (MST) Temp. Dew Point Humidity Pressure Visibility Wind Dir Wind Speed Gust Speed Precip Events Conditions
12:57 AM 57.0 °F 54.0 °F 89% 29.94 in 10.0 mi Calm Calm - 0.06 in   Overcast
1:57 AM 57.0 °F 54.0 °F 89% 29.95 in 10.0 mi Calm Calm - 0.01 in Rain Light Rain
2:57 AM 55.0 °F 53.1 °F 93% 29.96 in 8.0 mi Calm Calm - 0.00 in   Partly Cloudy
3:57 AM 54.0 °F 52.0 °F 93% 29.97 in 10.0 mi Calm Calm - N/A   Clear
4:57 AM 52.0 °F 51.1 °F 97% 30.02 in 10.0 mi Calm Calm - N/A   Clear
5:57 AM 51.1 °F 50.0 °F 96% 30.06 in 7.0 mi Calm Calm - N/A   Clear
6:57 AM 55.9 °F 54.0 °F 93% 30.04 in 10.0 mi Calm Calm - N/A   Clear
7:57 AM 63.0 °F 52.0 °F 67% 30.04 in 10.0 mi SSW 5.8 mph - N/A   Clear
8:57 AM 66.0 °F 54.0 °F 65% 30.05 in 10.0 mi SW 8.1 mph - N/A   Clear
9:57 AM 68.0 °F 54.0 °F 61% 30.06 in 10.0 mi SSW 10.4 mph - N/A   Clear
10:57 AM 70.0 °F 50.0 °F 49% 30.06 in 10.0 mi WSW 9.2 mph - N/A   Scattered Clouds
11:57 AM 72.0 °F 51.1 °F 48% 30.06 in 10.0 mi WSW 8.1 mph - N/A   Scattered Clouds
12:57 PM 73.0 °F 50.0 °F 44% 30.05 in 10.0 mi SW 10.4 mph 17.3 mph N/A   Partly Cloudy
1:57 PM 73.9 °F 50.0 °F 43% 30.04 in 10.0 mi West 8.1 mph 19.6 mph N/A   Mostly Cloudy
2:57 PM 73.9 °F 51.1 °F 45% 30.04 in 10.0 mi WSW 8.1 mph 19.6 mph N/A   Scattered Clouds
3:57 PM 75.9 °F 48.0 °F 37% 30.03 in 10.0 mi West 12.7 mph 19.6 mph N/A   Partly Cloudy
4:57 PM 75.9 °F 48.9 °F 38% 30.04 in 10.0 mi West 10.4 mph 19.6 mph N/A   Partly Cloudy
5:57 PM 73.9 °F 48.0 °F 40% 30.04 in 10.0 mi SW 11.5 mph 19.6 mph N/A   Clear
6:57 PM 71.1 °F 48.0 °F 44% 30.04 in 10.0 mi SW 11.5 mph - N/A   Partly Cloudy
7:57 PM 68.0 °F 46.9 °F 47% 30.04 in 10.0 mi West 4.6 mph - N/A   Clear
8:57 PM 62.1 °F 50.0 °F 65% 30.09 in 10.0 mi Calm Calm - N/A   Clear
9:57 PM 57.0 °F 50.0 °F 77% 30.12 in 10.0 mi Calm Calm - N/A   Clear
10:57 PM 54.0 °F 48.9 °F 83% 30.14 in 10.0 mi Calm Calm - N/A   Clear
11:57 PM 54.0 °F 48.0 °F 80% 30.14 in 10.0 mi Calm Calm - N/A   Clear